TIANWANG 1B (TW-1B)
1 40927U 15051C   19156.90553241 +.00008232 +00000-0 +12903-3 0  9998
2 40927 097.1393 202.4910 0010208 075.4569 272.8158 15.53903353208023
TIANWANG 1A (TW-1A)
1 40928U 15051D   19156.82808546 +.00002396 +00000-0 +60550-4 0  9998
2 40928 097.1462 188.4182 0012906 115.4797 330.7620 15.40692670207198
LAPAN A2
1 40931U 15052B   19155.30000984  .00000770  00000-0  18055-4 0  9992
2 40931   5.9954 159.2137 0014070 311.8593  48.0427 14.76608624199133
LQSAT
1 40958U 15057A   19156.79370875 +.00000077 +00000-0 +19618-4 0  9995
2 40958 097.8977 226.3360 0016796 284.4636 075.4684 14.73080209196913
CHUBUSAT 2
1 41338U 16012B   19156.84983711 +.00000243 +00000-0 +12196-4 0  9994
2 41338 031.0023 226.3821 0013894 335.8276 024.1707 15.00147671180982
CHUBUSAT 3
1 41339U 16012C   19156.62124333 +.00000256 +00000-0 +13150-4 0  9993
2 41339 031.0095 225.9466 0013702 341.4448 018.5687 15.00323744180941
OUFTI-1
1 41458U 16025C   19156.89681084 +.00001168 +00000-0 +63099-4 0  9999
2 41458 098.1019 243.0892 0167591 040.5809 320.7769 15.05785824170642
E-STAR-2
1 41459U 16025D   19156.77729909 +.00001481 +00000-0 +79357-4 0  9998
2 41459 098.1014 242.6317 0168507 042.1452 319.2572 15.05429150170603
AAUSAT 4
1 41460U 16025E   19156.70261493 +.00001491 +00000-0 +78318-4 0  9999
2 41460 098.0976 243.7640 0158528 035.3744 325.7859 15.07295062170719
NUSAT 1
1 41557U 16033B   19156.87424731 +.00000977 +00000-0 +39398-4 0  9992
2 41557 097.4177 244.4486 0013386 350.4881 009.6102 15.27178134168137
BEESAT 4
1 41619U 16040W   19156.90111948 +.00001177 +00000-0 +52783-4 0  9992
2 41619 097.3682 219.3626 0013021 072.0132 288.2523 15.23088872151910
PRATHAM
1 41783U 16059A   19156.80983027 +.00000046 +00000-0 +18031-4 0  9990
2 41783 098.0683 216.6755 0034820 065.7668 294.7166 14.62993697143667
ALSAT 1N
1 41789U 16059G   19156.80946920 +.00000051 +00000-0 +18733-4 0  9992
2 41789 098.0710 218.6410 0029582 056.0017 304.3978 14.64241843143765
NAYIF 1
1 42017U 17008BX  19156.84100874 +.00001233 +00000-0 +51541-4 0  9993
2 42017 097.4037 224.0669 0005524 199.1301 160.9730 15.25485776127966
MAX VALIER SAT
1 42778U 17036P   19156.70829105 +.00000707 +00000-0 +33966-4 0  9994
2 42778 097.3553 214.6601 0010586 269.7178 090.2846 15.21987444108263
